Location: Antoign�
(47.0844°N, 0.1131°W)
Time: 01:46:16
(UTC+00:00)

USA 306 - Pass Details

Date: 03 March 2021
Orbit: 564 x 577 km, 54.0° (Epoch: 16 April)

Event Time Altitude Azimuth Distance (km) Brightness Sun altitude
Rises 18:18:15 0° 269° (W) 2,773 9.3 -5.8°
Reaches altitude 10° 18:20:38 10° 278° (W) 1,874 7.2 -6.2°
Maximum altitude 18:24:37 37° 347° (NNW) 892 4.0 -6.9°
Drops below altitude 10° 18:28:35 10° 56° (NE) 1,869 5.0 -7.5°
Enters shadow 18:29:22 - 59° (ENE) 2,155 5.3 -7.7°
